KG7MRB Weather Reports


time (UTC)temp
C
wind
direction
speed
KPH
gust
KPH
rain 1hr
cm
rain 24hr
cm
rain mn
cm
humidity
%
barometer
mb
20260503180109 23 12 3.2 11.3 0.00 0.00 0.00 41 1032.2
20260503175605 23 5 4.8 11.3 0.00 0.00 0.00 40 1032.5
20260503175103 23 20 3.2 11.3 0.00 0.00 0.00 41 1032.5
20260503174559 23 349 4.8 4.8 0.00 0.00 0.00 43 1032.6
20260503174056 23 40 3.2 4.8 0.00 0.00 0.00 42 1032.7
20260503173551 22 13 6.4 11.3 0.00 0.00 0.00 43 1032.6
20260503173048 22 26 6.4 12.9 0.00 0.00 0.00 44 1032.5
20260503172545 22 25 3.2 4.8 0.00 0.00 0.00 45 1032.6
20260503172042 21 344 4.8 6.4 0.00 0.00 0.00 48 1032.7
20260503171538 22 40 4.8 6.4 0.00 0.00 0.00 44 1032.6
20260503171036 21 2 8.0 11.3 0.00 0.00 0.00 46 1032.6
20260503170532 21 80 0.0 3.2 0.00 0.00 0.00 49 1032.6
20260503150924 7 8 0.0 0.0 0.00 0.00 0.00 98 1033.8
20260503150421 7 8 0.0 0.0 0.00 0.00 0.00 99 1034.0
20260503131314 6 72 0.0 0.0 0.00 0.00 0.00 99 1033.7
20260503130812 6 72 0.0 0.0 0.00 0.00 0.00 99 1033.4
20260503130309 6 72 0.0 0.0 0.00 0.00 0.00 99 1033.7
20260503110703 7 42 0.0 0.0 0.00 0.00 0.00 99 1033.8
20260503110200 7 42 0.0 0.0 0.00 0.00 0.00 99 1033.8
20260503100126 8 25 0.0 0.0 0.00 0.00 0.00 98 1033.7
20260503081516 10 96 0.0 0.0 0.00 0.00 0.00 95 1033.8
20260503081013 10 41 0.0 0.0 0.00 0.00 0.00 95 1033.7
20260503080509 10 50 0.0 0.0 0.00 0.00 0.00 94 1034.0
20260503072443 11 64 0.0 0.0 0.00 0.00 0.00 93 1033.4
20260503071940 11 67 0.0 0.0 0.00 0.00 0.00 93 1033.5
20260503071437 11 67 0.0 0.0 0.00 0.00 0.00 92 1033.4
20260503070933 11 67 0.0 0.0 0.00 0.00 0.00 92 1033.4
20260503070430 11 272 1.6 3.2 0.00 0.00 0.00 92 1033.1
20260503054844 12 71 0.0 0.0 0.00 0.00 0.00 89 1033.2
20260503054339 12 95 0.0 0.0 0.00 0.00 0.00 88 1033.3
20260503053837 12 95 0.0 0.0 0.00 0.00 0.00 88 1033.2
20260503053336 12 149 0.0 0.0 0.00 0.00 0.00 88 1033.1
20260503052831 12 149 0.0 0.0 0.00 0.00 0.00 87 1033.1
20260503052329 13 149 0.0 0.0 0.00 0.00 0.00 86 1033.2
20260503051825 13 149 0.0 0.0 0.00 0.00 0.00 86 1033.2
20260503051321 13 149 0.0 0.0 0.00 0.00 0.00 86 1033.2
20260503050818 13 149 0.0 0.0 0.00 0.00 0.00 86 1033.0
20260503050314 13 149 0.0 0.0 0.00 0.00 0.00 85 1033.0
20260503045812 13 149 0.0 0.0 0.00 0.00 0.00 85 1033.2
20260503045310 13 149 0.0 0.0 0.00 0.00 0.00 84 1033.0
20260503044806 13 149 0.0 0.0 0.00 0.00 0.00 82 1033.1
20260503044303 14 149 0.0 0.0 0.00 0.00 0.00 82 1032.9
20260503043800 14 149 0.0 0.0 0.00 0.00 0.00 81 1033.1
20260503043257 14 149 0.0 0.0 0.00 0.00 0.00 81 1032.9
20260503042753 15 149 0.0 0.0 0.00 0.00 0.00 81 1032.9
20260503042250 15 149 0.0 0.0 0.00 0.00 0.00 81 1032.8
20260503041745 15 149 0.0 0.0 0.00 0.00 0.00 78 1033.0
20260503041244 15 149 0.0 0.0 0.00 0.00 0.00 78 1033.0
20260503040741 15 149 0.0 0.0 0.00 0.00 0.00 78 1033.0
20260503040239 16 149 0.0 0.0 0.00 0.00 0.00 76 1032.7
20260503035735 16 149 0.0 0.0 0.00 0.00 0.00 75 1032.8
20260503035233 16 149 0.0 0.0 0.00 0.00 0.00 74 1032.6
20260503034730 16 149 0.0 0.0 0.00 0.00 0.00 73 1032.6
20260503034227 16 149 0.0 0.0 0.00 0.00 0.00 72 1032.4
20260503033724 17 149 0.0 0.0 0.00 0.00 0.00 72 1032.1
20260503033221 17 149 0.0 0.0 0.00 0.00 0.00 70 1032.1
20260503032720 17 149 0.0 0.0 0.00 0.00 0.00 70 1032.2
20260503032218 17 149 0.0 0.0 0.00 0.00 0.00 69 1032.2
20260503031714 18 149 0.0 0.0 0.00 0.00 0.00 68 1032.1
20260503031213 18 149 0.0 0.0 0.00 0.00 0.00 67 1032.2
20260503030709 18 149 0.0 0.0 0.00 0.00 0.00 66 1032.1
20260503030205 19 156 1.6 1.6 0.00 0.00 0.00 63 1032.1
20260503025702 20 191 3.2 3.2 0.00 0.00 0.00 62 1032.1
20260503025200 21 358 0.0 0.0 0.00 0.00 0.00 55 1031.9
20260503024656 21 358 0.0 0.0 0.00 0.00 0.00 51 1032.0
20260503024154 22 358 1.6 4.8 0.00 0.00 0.00 50 1031.9
20260503023650 22 9 3.2 4.8 0.00 0.00 0.00 47 1031.9
20260503023147 22 7 6.4 6.4 0.00 0.00 0.00 45 1031.9
20260503022644 22 358 0.0 3.2 0.00 0.00 0.00 46 1031.8
20260503022143 23 6 1.6 6.4 0.00 0.00 0.00 45 1032.0
20260503021640 23 356 3.2 6.4 0.00 0.00 0.00 43 1031.8
20260503021137 23 0 6.4 9.7 0.00 0.00 0.00 43 1031.7
20260503020634 23 355 6.4 6.4 0.00 0.00 0.00 44 1031.9
20260503020131 23 355 6.4 11.3 0.00 0.00 0.00 43 1032.0
20260503015628 23 13 6.4 12.9 0.00 0.00 0.00 43 1031.8
20260503015125 23 11 6.4 11.3 0.00 0.00 0.00 43 1031.9
20260503014621 23 350 6.4 11.3 0.00 0.00 0.00 43 1031.9
20260503014119 23 10 8.0 12.9 0.00 0.00 0.00 43 1032.1
20260503013616 23 15 9.7 14.5 0.00 0.00 0.00 43 1031.9
20260503013114 24 352 6.4 12.9 0.00 0.00 0.00 44 1032.1
20260503012611 24 7 11.3 12.9 0.00 0.00 0.00 45 1032.0
20260503012107 24 6 4.8 11.3 0.00 0.00 0.00 47 1032.1
20260503011604 24 347 8.0 16.1 0.00 0.00 0.00 47 1032.2
20260503011101 24 2 9.7 12.9 0.00 0.00 0.00 47 1032.0
20260503010557 24 354 8.0 11.3 0.00 0.00 0.00 47 1032.0
20260503010055 24 66 6.4 11.3 0.00 0.00 0.00 47 1032.0
20260503005552 25 1 9.7 12.9 0.00 0.00 0.00 47 1032.2
20260503005049 25 357 6.4 12.9 0.00 0.00 0.00 47 1032.1
20260503004545 25 7 8.0 17.7 0.00 0.00 0.00 47 1032.2
20260503004044 25 359 6.4 12.9 0.00 0.00 0.00 47 1032.0
20260503003539 25 1 12.9 14.5 0.00 0.00 0.00 47 1032.3
20260503003037 25 6 6.4 11.3 0.00 0.00 0.00 47 1032.2
20260503002534 25 21 11.3 12.9 0.00 0.00 0.00 47 1031.9
20260503002031 25 355 4.8 14.5 0.00 0.00 0.00 48 1032.2
20260503001527 25 352 6.4 9.7 0.00 0.00 0.00 47 1032.2
20260503001025 25 84 0.0 6.4 0.00 0.00 0.00 47 1032.0
20260503000522 26 12 4.8 6.4 0.00 0.00 0.00 46 1032.2
20260503000019 25 8 6.4 6.4 0.00 0.00 0.00 47 1032.3
20260502235515 26 348 8.0 14.5 0.00 0.00 0.00 46 1032.3
20260502235013 26 43 0.0 6.4 0.00 0.00 0.00 46 1032.2
20260502234509 26 53 1.6 11.3 0.00 0.00 0.00 47 1032.1
20260502234007 26 0 9.7 12.9 0.00 0.00 0.00 46 1032.2
20260502233507 26 81 1.6 9.7 0.00 0.00 0.00 45 1032.5
20260502233004 26 3 1.6 6.4 0.00 0.00 0.00 46 1032.6
20260502232500 27 64 3.2 6.4 0.00 0.00 0.00 43 1032.4
20260502231957 26 216 6.4 12.9 0.00 0.00 0.00 45 1032.5
20260502231454 26 164 3.2 9.7 0.00 0.00 0.00 43 1032.3
20260502230952 26 351 8.0 9.7 0.00 0.00 0.00 43 1032.5
20260502230450 27 345 1.6 6.4 0.00 0.00 0.00 44 1032.5
20260502225948 26 341 8.0 11.3 0.00 0.00 0.00 42 1033.0
20260502225444 26 10 4.8 12.9 0.00 0.00 0.00 44 1032.7
20260502224941 26 355 9.7 17.7 0.00 0.00 0.00 43 1032.7
20260502224437 27 179 3.2 12.9 0.00 0.00 0.00 41 1032.8
20260502223934 26 79 1.6 3.2 0.00 0.00 0.00 41 1032.8
20260502223432 27 347 6.4 9.7 0.00 0.00 0.00 42 1032.8
20260502222930 26 348 9.7 14.5 0.00 0.00 0.00 42 1032.8
20260502222427 26 39 0.0 6.4 0.00 0.00 0.00 37 1032.8
20260502221922 26 23 9.7 11.3 0.00 0.00 0.00 38 1033.0
20260502221419 26 326 3.2 9.7 0.00 0.00 0.00 39 1033.1
20260502220916 26 2 8.0 14.5 0.00 0.00 0.00 39 1033.2
20260502220412 26 346 3.2 11.3 0.00 0.00 0.00 38 1033.2
20260502215909 27 334 6.4 9.7 0.00 0.00 0.00 37 1033.3
20260502215406 26 345 3.2 11.3 0.00 0.00 0.00 38 1033.3
20260502214903 26 354 11.3 14.5 0.00 0.00 0.00 39 1033.3
20260502214359 26 19 6.4 6.4 0.00 0.00 0.00 38 1033.4
20260502213857 26 50 4.8 9.7 0.00 0.00 0.00 39 1033.3
20260502213354 26 348 9.7 16.1 0.00 0.00 0.00 39 1033.7
20260502212853 26 359 8.0 11.3 0.00 0.00 0.00 38 1033.8
20260502212351 26 53 3.2 9.7 0.00 0.00 0.00 39 1033.8
20260502211848 26 107 1.6 9.7 0.00 0.00 0.00 37 1033.5
20260502211343 26 12 3.2 6.4 0.00 0.00 0.00 39 1033.7
20260502210841 25 10 9.7 12.9 0.00 0.00 0.00 38 1034.0
20260502210338 26 341 6.4 9.7 0.00 0.00 0.00 39 1033.9
20260502205835 26 73 1.6 14.5 0.00 0.00 0.00 41 1033.9
20260502205331 25 305 9.7 14.5 0.00 0.00 0.00 42 1034.1
20260502204828 26 118 1.6 6.4 0.00 0.00 0.00 40 1034.0
20260502204326 25 139 1.6 6.4 0.00 0.00 0.00 43 1034.0
20260502203823 25 310 4.8 11.3 0.00 0.00 0.00 40 1034.1
20260502203320 25 17 4.8 6.4 0.00 0.00 0.00 40 1034.0
20260502202815 25 283 6.4 12.9 0.00 0.00 0.00 41 1034.1
20260502202313 26 90 6.4 17.7 0.00 0.00 0.00 40 1034.1
20260502201811 25 245 4.8 11.3 0.00 0.00 0.00 39 1034.2
20260502201306 25 59 3.2 16.1 0.00 0.00 0.00 41 1034.0
20260502200803 26 26 1.6 6.4 0.00 0.00 0.00 38 1034.0
20260502200259 26 262 4.8 9.7 0.00 0.00 0.00 39 1034.0
20260502195757 25 161 1.6 11.3 0.00 0.00 0.00 36 1034.2
20260502195254 25 27 4.8 9.7 0.00 0.00 0.00 37 1034.3
20260502194750 25 252 1.6 6.4 0.00 0.00 0.00 41 1034.2
20260502194247 25 325 11.3 20.9 0.00 0.00 0.00 38 1034.4
20260502193743 25 326 8.0 12.9 0.00 0.00 0.00 38 1034.3
20260502193241 25 8 6.4 11.3 0.00 0.00 0.00 39 1034.4
20260502192741 25 3 16.1 20.9 0.00 0.00 0.00 40 1034.1
20260502192238 24 36 4.8 9.7 0.00 0.00 0.00 43 1034.3
20260502191735 24 18 6.4 14.5 0.00 0.00 0.00 40 1034.6
20260502191233 24 326 14.5 20.9 0.00 0.00 0.00 40 1034.6
20260502190730 23 28 3.2 17.7 0.00 0.00 0.00 41 1034.6
20260502190227 23 33 6.4 16.1 0.00 0.00 0.00 39 1034.6
20260502185727 24 17 6.4 16.1 0.00 0.00 0.00 41 1034.7
20260502185224 23 21 0.0 12.9 0.00 0.00 0.00 42 1034.6
20260502184720 23 359 9.7 20.9 0.00 0.00 0.00 39 1034.8
20260502184216 23 339 4.8 16.1 0.00 0.00 0.00 40 1034.9
20260502183713 23 3 14.5 17.7 0.00 0.00 0.00 40 1035.0
20260502183209 23 6 4.8 20.9 0.00 0.00 0.00 42 1034.7
20260502182704 22 35 6.4 14.5 0.00 0.00 0.00 41 1034.8
20260502182200 22 335 12.9 17.7 0.00 0.00 0.00 41 1035.1
20260502181657 22 7 9.7 11.3 0.00 0.00 0.00 42 1035.1
20260502181156 22 329 3.2 11.3 0.00 0.00 0.00 43 1035.0
20260502180653 22 236 1.6 6.4 0.00 0.00 0.00 46 1034.9